📊 Raw Sensor Data
Showing records 52726 to 52750 of 85,307 total
| ID | Distance (ft) | Battery V | Battery A | Int Temp (°F) | Int Humid (%) | Ext Temp (°F) | Solar V | RSSI | SNR | Time Stamp |
|---|---|---|---|---|---|---|---|---|---|---|
| 32594 | 12.6 | 3.64 | -5 | 45 | 38 | 45 | 0.00 | -85 | 8 | 02/17/2025 12:15 AM |
| 32593 | 12.6 | 3.76 | -5 | 46 | 38 | 47 | 0.00 | -86 | 8 | 02/17/2025 12:00 AM |
| 32592 | 12.6 | 3.64 | -5 | 46 | 38 | 47 | 0.10 | -87 | 9 | 02/16/2025 11:45 PM |
| 32591 | 12.6 | 3.77 | -5 | 47 | 38 | 48 | 0.10 | -84 | 9 | 02/16/2025 11:30 PM |
| 32590 | 12.6 | 3.64 | -5 | 47 | 37 | 49 | 0.00 | -86 | 8 | 02/16/2025 11:15 PM |
| 32589 | 12.6 | 3.76 | -5 | 47 | 37 | 49 | 0.00 | -84 | 8 | 02/16/2025 11:00 PM |
| 32588 | 12.6 | 3.63 | -5 | 47 | 38 | 49 | 0.00 | -86 | 7 | 02/16/2025 10:45 PM |
| 32587 | 12.6 | 3.61 | -5 | 46 | 38 | 48 | 0.10 | -82 | 8 | 02/16/2025 10:30 PM |
| 32586 | 12.6 | 3.61 | -5 | 47 | 38 | 49 | 0.00 | -83 | 8 | 02/16/2025 10:15 PM |
| 32585 | 12.6 | 3.62 | -5 | 48 | 38 | 49 | 0.10 | -83 | 9 | 02/16/2025 10:00 PM |
| 32584 | 12.6 | 3.61 | -5 | 48 | 38 | 49 | 0.00 | -82 | 8 | 02/16/2025 09:45 PM |
| 32583 | 12.6 | 3.77 | -5 | 49 | 38 | 50 | 0.10 | -81 | 8 | 02/16/2025 09:30 PM |
| 32582 | 12.6 | 3.62 | -5 | 49 | 38 | 50 | 0.10 | -80 | 8 | 02/16/2025 09:15 PM |
| 32581 | 12.6 | 3.62 | -5 | 49 | 38 | 51 | 0.00 | -80 | 7 | 02/16/2025 09:00 PM |
| 32580 | 12.6 | 3.77 | -5 | 49 | 38 | 51 | 0.00 | -81 | 8 | 02/16/2025 08:45 PM |
| 32579 | 12.6 | 3.68 | -5 | 49 | 38 | 50 | 0.00 | -80 | 8 | 02/16/2025 08:30 PM |
| 32578 | 12.6 | 3.61 | -5 | 49 | 38 | 50 | 0.00 | -80 | 8 | 02/16/2025 08:15 PM |
| 32577 | 12.6 | 3.70 | -5 | 50 | 38 | 51 | 0.10 | -80 | 7 | 02/16/2025 08:00 PM |
| 32576 | 12.7 | 3.76 | -5 | 50 | 39 | 51 | 0.00 | -80 | 8 | 02/16/2025 07:45 PM |
| 32575 | 12.6 | 3.60 | -5 | 51 | 39 | 52 | 0.10 | -80 | 8 | 02/16/2025 07:30 PM |
| 32574 | 12.6 | 3.63 | -5 | 51 | 39 | 52 | 0.00 | -80 | 8 | 02/16/2025 07:15 PM |
| 32573 | 12.6 | 3.77 | -5 | 52 | 39 | 52 | 0.10 | -80 | 8 | 02/16/2025 07:00 PM |
| 32572 | 12.6 | 3.60 | -5 | 52 | 40 | 54 | 0.00 | -80 | 8 | 02/16/2025 06:45 PM |
| 32571 | 12.6 | 3.58 | -5 | 53 | 40 | 53 | 0.00 | -79 | 8 | 02/16/2025 06:30 PM |
| 32570 | 12.6 | 3.77 | -5 | 54 | 41 | 54 | 0.00 | -79 | 8 | 02/16/2025 06:15 PM |